GFSGBSN_500_rhum_054.txt.gz
RH
51 59 62 53 47 40 26 19 16 14 13 11 9 10 11 12 13 16 19 24 22 22 28 30 30 52 78 77 99 95 64 46 44 43 38 38 36 38 43 42 43 62 70 61 36 38 23
68 62 56 49 37 28 23 17 16 16 14 14 13 17 18 19 20 22 18 25 16 35 42 39 40 54 81 83 93 98 87 65 59 48 45 44 44 45 43 42 41 64 72 62 50 38 32
79 72 57 43 33 22 19 17 17 17 17 18 25 24 25 27 23 12 6 18 14 40 50 57 50 46 63 92 92 98 76 68 94 72 64 60 53 50 49 47 40 54 73 65 62 45 36
78 64 37 29 22 20 18 18 18 20 24 26 24 25 23 21 17 8 3 13 9 34 43 80 71 56 57 97 91 98 97 88 97 94 95 79 67 59 56 46 46 50 72 69 76 47 36
74 53 20 20 21 20 20 21 22 26 18 19 19 20 18 15 12 8 4 4 4 25 30 73 95 82 72 74 96 98 98 96 97 96 97 87 70 52 51 52 48 48 68 77 80 55 38
78 49 18 18 21 29 29 31 29 15 13 14 16 20 22 22 14 10 6 5 4 10 33 77 72 78 90 86 97 91 98 97 97 94 91 93 78 51 45 46 44 68 90 81 77 58 46
80 34 21 24 35 37 43 35 22 17 10 10 15 19 23 27 25 13 7 8 4 4 13 67 70 79 82 86 96 96 98 97 97 91 79 94 72 46 63 70 90 93 80 82 74 63 58
60 50 57 45 46 53 56 46 32 23 14 13 18 21 24 28 28 25 12 8 5 4 9 36 63 76 83 79 88 96 98 97 97 97 94 72 56 71 66 71 95 76 65 79 84 72 55
59 64 70 69 62 60 52 41 37 31 20 15 19 23 30 34 31 29 23 10 6 4 4 6 46 52 90 83 95 99 95 98 99 96 86 72 85 77 60 89 100 85 61 79 96 77 54
58 69 81 79 72 54 44 37 34 32 24 16 19 29 36 40 38 33 30 17 9 5 4 3 5 52 50 98 100 90 96 95 96 100 100 76 94 75 72 95 100 94 74 84 89 87 78
66 63 74 83 75 50 37 23 25 26 18 18 28 33 37 42 39 35 30 21 11 6 4 4 3 24 51 63 95 96 99 94 95 99 95 96 100 87 80 95 100 100 76 91 92 81 71
69 71 77 74 75 67 46 28 22 20 19 23 30 31 38 44 42 38 25 17 13 6 4 4 3 4 35 41 32 93 97 97 100 96 96 100 97 90 80 100 100 97 86 91 85 78 54
51 68 71 78 74 62 50 35 29 25 26 29 32 32 45 47 43 37 26 16 11 7 5 4 4 4 5 24 38 30 94 98 99 95 96 100 99 96 92 98 97 95 88 95 84 69 55
3 6 22 59 76 74 64 52 40 34 35 36 36 36 50 51 46 27 20 13 9 7 4 3 3 3 3 6 18 30 34 94 98 97 98 98 95 98 99 100 100 99 94 91 90 81 77
2 2 5 7 12 32 48 52 54 54 51 47 50 55 54 47 34 21 15 12 7 6 4 3 2 2 2 5 11 24 18 62 95 97 97 98 96 97 96 98 96 95 82 94 99 91 84
3 3 4 5 6 5 5 6 14 20 25 41 49 46 24 25 12 15 14 10 5 4 3 3 3 2 3 4 5 8 25 29 80 88 89 98 98 98 98 96 95 97 97 92 91 91 93
6 5 5 6 6 5 4 4 4 4 4 5 8 12 8 6 6 9 9 4 3 3 2 2 2 2 2 2 6 5 7 24 29 90 74 61 98 98 98 91 96 96 98 96 95 95 92
10 10 11 10 10 10 9 7 6 6 5 5 4 4 5 4 4 4 3 3 3 4 3 3 3 2 2 3 3 6 6 10 25 33 89 68 31 88 83 77 87 94 93 94 100 100 95
8 8 9 10 10 10 11 11 10 8 7 6 5 4 4 4 4 4 4 4 5 5 5 4 4 3 3 3 6 6 7 11 9 19 34 76 72 17 19 30 48 78 74 80 82 82 83
13 27 40 50 49 42 22 10 10 9 8 7 6 5 5 4 5 6 7 8 8 8 6 5 4 4 3 4 10 12 15 10 34 26 14 28 46 74 26 23 25 28 55 73 72 76 80
46 64 72 61 47 30 33 36 12 12 12 9 7 6 5 6 6 8 11 10 10 6 5 6 6 9 11 6 8 25 36 44 15 91 88 64 23 25 48 53 32 32 48 78 95 72 56
61 80 66 70 65 81 42 32 24 17 21 12 7 6 6 8 10 13 13 11 7 7 6 11 40 35 32 18 15 47 40 37 33 38 34 44 100 91 39 44 44 36 31 26 26 25 27
81 87 84 94 87 97 92 68 50 37 30 15 8 7 9 13 17 14 13 8 8 9 19 95 97 51 88 100 66 28 29 36 43 44 97 48 30 38 60 59 31 20 27 37 42 44 40
70 96 100 100 93 99 93 84 63 48 31 19 14 17 18 15 18 15 10 9 10 21 92 100 69 100 97 100 96 85 61 44 39 40 39 55 100 92 84 88 36 22 25 33 47 48 32
24 39 82 100 93 98 91 81 70 61 46 21 17 18 20 19 18 11 10 11 35 95 93 100 100 100 100 100 98 100 86 76 54 46 32 34 42 50 56 45 34 43 71 68 50 57 54
20 25 48 98 98 95 90 73 66 61 48 25 22 33 26 19 15 14 16 26 77 84 100 100 100 100 100 100 100 87 89 80 76 57 40 31 22 18 14 14 12 32 72 69 27 38 41
22 22 32 65 98 94 87 73 64 57 44 30 33 36 25 18 13 24 30 58 100 100 100 100 100 100 100 97 95 99 100 96 94 62 38 28 23 22 23 18 15 25 35 31 28 18 21
16 20 23 40 72 90 85 76 63 54 54 36 42 31 21 13 42 38 66 99 100 100 100 100 100 100 97 86 88 100 100 99 84 78 54 45 42 31 26 20 26 31 30 27 30 20 20
27 15 16 22 38 58 72 72 69 61 50 36 29 21 14 34 73 73 99 100 100 100 99 98 90 100 94 76 79 97 100 100 100 82 61 47 40 48 35 36 30 29 33 30 29 24 23

GFSGBSN_500_rhum_057.txt.gz
RH
75 80 78 70 70 69 59 57 51 40 36 31 21 15 12 11 9 7 6 6 5 7 10 12 16 20 24 26 34 42 59 74 96 48 40 30 27 26 25 28 33 42 44 56 61 60 42
82 83 82 68 61 71 72 64 52 36 28 23 18 14 13 12 10 9 8 8 10 16 12 12 16 18 30 42 50 53 59 77 98 53 47 40 33 28 28 32 40 45 51 61 65 62 42
84 76 76 62 75 67 72 68 50 35 23 19 16 16 15 14 12 10 12 15 20 17 11 4 12 18 34 65 42 51 67 86 98 64 55 51 46 37 35 37 43 49 53 66 66 67 52
91 80 71 73 74 75 75 64 38 28 21 18 19 18 18 16 15 15 21 20 18 17 9 3 4 15 39 69 64 50 79 94 98 95 73 58 51 47 42 43 50 56 57 60 72 70 64
78 74 70 78 81 79 75 51 22 21 20 22 20 22 23 20 19 22 20 20 19 19 10 5 4 9 38 64 76 70 69 90 97 96 95 73 60 58 52 56 60 64 52 65 85 74 70
69 77 72 74 80 80 82 42 21 24 27 29 27 26 25 22 19 19 21 24 24 20 12 6 4 7 32 43 73 75 73 89 97 96 84 89 84 75 64 65 63 73 68 82 97 98 65
80 79 81 90 90 87 73 46 29 30 33 37 32 30 23 15 14 16 21 23 23 22 14 7 5 5 27 25 67 83 96 94 97 97 79 100 94 79 68 78 85 97 100 100 98 100 64
84 88 90 90 77 70 63 59 63 55 50 48 40 32 17 12 14 18 23 28 28 25 24 13 6 4 8 12 49 86 98 94 96 97 98 96 75 88 96 98 100 100 93 79 99 84 77
90 85 74 68 65 63 59 62 64 64 62 59 54 45 30 22 14 19 24 33 33 29 27 19 8 4 4 7 43 79 96 96 98 98 95 98 96 99 95 100 99 100 95 87 89 96 75
72 70 68 65 63 62 59 61 65 70 70 60 50 44 29 20 19 19 28 36 37 34 30 24 12 5 4 12 48 77 97 97 97 98 98 98 98 96 92 92 100 98 100 100 99 91 70
42 43 47 50 52 56 64 70 73 79 71 64 43 37 31 26 19 21 30 38 41 34 27 20 15 6 4 6 24 83 96 99 100 99 97 97 98 94 84 79 97 85 96 100 98 91 73
4 3 5 8 20 35 48 59 67 74 76 71 52 33 21 20 19 22 30 34 44 39 26 18 11 6 5 4 10 50 93 97 99 95 96 98 97 94 92 98 96 98 96 98 97 96 65
2 2 2 2 2 2 3 16 57 75 76 63 56 42 26 22 21 27 29 34 47 40 29 18 9 6 4 4 4 12 42 89 98 98 95 99 96 96 100 96 94 98 100 100 100 96 58
2 2 2 2 2 2 2 2 3 22 71 77 64 43 35 28 27 30 29 34 49 40 28 15 8 4 3 3 4 4 10 36 88 99 99 97 95 99 100 96 98 98 93 91 96 96 98
3 3 3 2 2 2 2 3 3 5 8 43 67 61 49 38 35 40 48 50 50 45 33 14 9 5 4 3 3 4 6 16 41 90 97 99 96 97 98 98 97 96 83 95 97 99 94
4 4 3 3 3 3 3 3 4 4 6 6 15 42 51 57 49 47 50 52 46 34 24 17 7 5 4 5 4 3 4 6 19 27 94 100 97 100 98 97 94 95 100 98 94 99 100
7 5 4 5 9 10 9 6 8 8 5 5 5 6 15 24 33 51 57 42 23 20 13 11 6 3 3 3 3 3 3 4 7 25 38 93 98 100 97 90 98 99 96 91 100 100 100
8 6 10 18 14 10 9 10 12 12 11 6 5 5 5 6 12 24 39 17 11 8 5 4 4 3 3 2 2 2 2 3 5 14 43 82 94 95 100 100 97 100 98 99 99 100 99
6 10 21 16 11 10 8 8 9 12 14 12 9 6 6 6 5 5 7 6 6 5 4 4 3 3 3 3 2 2 2 2 4 5 23 56 79 96 100 100 100 97 98 99 100 100 98
8 18 14 9 7 10 17 25 31 29 17 11 11 10 8 8 6 5 5 5 5 4 5 5 4 4 3 3 3 2 2 2 5 16 9 25 76 92 99 100 99 95 99 98 99 98 98
16 13 8 13 29 48 60 71 67 62 56 51 14 11 11 10 8 6 7 6 5 5 6 8 6 5 5 4 3 2 2 4 10 92 97 39 30 84 100 86 87 100 89 47 61 88 100
12 23 34 48 50 60 87 77 61 53 35 33 47 13 13 15 10 10 8 7 7 8 9 10 10 7 5 4 4 6 8 6 5 18 100 100 86 34 60 59 86 99 72 30 43 64 64
43 41 33 24 40 92 96 86 91 76 68 62 49 25 21 18 13 13 11 12 12 14 12 13 30 28 62 99 34 23 16 6 6 26 49 100 100 100 94 78 59 49 59 66 46 42 45
22 26 27 25 40 98 100 100 100 100 82 82 68 51 35 20 18 19 19 18 18 16 13 38 24 63 85 73 48 41 22 15 15 33 98 70 100 100 100 100 100 87 57 60 60 64 68
25 24 26 27 27 36 100 100 100 100 92 94 90 87 42 25 25 31 27 24 18 14 10 9 41 82 70 62 54 63 72 47 9 21 54 99 99 86 77 57 78 78 65 63 77 78 52
20 24 30 31 36 35 86 100 100 96 93 87 100 83 52 34 26 37 29 20 14 10 10 22 68 90 84 100 96 73 75 68 61 53 28 49 61 88 99 100 100 98 88 66 64 83 60
31 29 20 23 37 38 78 100 100 95 83 81 84 72 48 21 37 35 24 23 16 15 22 74 100 83 100 100 95 83 89 98 100 90 80 49 36 30 33 53 31 28 20 12 25 70 28
98 97 46 17 31 35 71 100 99 82 74 69 70 56 38 29 54 33 21 14 16 32 98 98 100 100 93 53 82 96 95 99 92 100 96 80 51 33 34 74 21 57 31 16 37 47 48
100 100 94 19 23 32 66 99 86 71 66 64 56 53 63 44 41 21 19 21 30 66 99 100 100 100 66 73 99 100 100 98 100 97 100 86 49 60 32 39 44 51 38 59 60 52 37

GFSGBSN_500_rhum_060.txt.gz
RH
95 89 94 95 95 86 73 77 75 66 55 65 59 51 41 32 27 21 14 11 9 8 6 6 5 4 4 7 7 11 10 30 27 36 51 94 93 31 18 15 18 19 22 29 42 58 57
100 90 94 97 96 90 76 79 69 61 66 65 65 57 39 31 22 16 14 12 11 9 8 6 6 6 8 7 6 9 17 39 31 37 56 85 96 40 22 18 19 22 24 30 45 53 62
97 98 98 97 96 95 84 70 65 56 65 66 66 49 32 23 20 18 16 14 12 10 10 8 7 7 14 8 6 8 36 52 37 34 57 99 100 60 26 23 21 22 26 33 45 59 65
96 97 97 93 95 86 92 91 82 67 71 75 67 52 30 23 21 22 19 18 16 15 11 9 12 15 14 9 6 7 25 54 66 48 51 100 97 73 32 27 25 25 28 39 52 66 72
96 96 96 92 91 79 71 70 71 71 72 73 69 41 24 22 24 23 22 21 20 17 14 14 18 18 16 9 6 6 25 37 73 58 59 97 98 85 49 33 54 30 35 47 61 70 74
98 95 94 89 87 83 77 74 72 77 79 76 64 36 24 24 24 24 23 22 21 19 19 19 18 19 13 10 5 6 17 27 82 64 67 94 97 87 64 51 46 50 45 62 67 83 96
98 95 90 87 80 86 87 84 87 82 79 79 58 38 30 31 32 27 24 22 22 20 19 22 22 20 20 15 7 4 10 18 74 78 67 96 96 80 96 81 58 74 85 99 100 94 100
99 97 91 89 86 89 92 86 78 72 66 60 61 66 59 49 44 35 28 24 29 24 22 24 28 24 21 20 8 4 6 28 69 96 96 94 95 96 98 94 92 96 87 84 98 100 84
97 98 95 91 88 86 83 78 72 68 64 61 59 55 62 62 54 53 46 42 38 30 27 29 31 26 23 21 12 5 7 25 76 97 96 91 100 98 94 92 93 92 90 97 77 100 100
90 84 78 63 55 49 47 47 48 48 50 54 55 55 66 64 56 45 44 38 36 28 25 29 31 26 22 19 12 5 7 23 75 98 98 97 100 90 96 94 98 97 100 98 98 100 83
33 20 14 8 6 7 7 6 8 15 28 40 44 49 61 73 63 55 41 34 29 25 34 32 33 29 22 16 9 5 6 15 39 97 97 99 98 98 97 96 98 92 98 98 100 100 87
3 2 2 2 2 2 2 2 2 2 2 3 10 33 53 65 73 57 38 28 24 32 35 38 39 36 26 17 10 6 4 6 20 89 97 100 99 96 98 97 93 97 97 100 99 94 77
2 2 2 2 2 2 2 2 2 2 2 2 2 2 16 52 69 62 50 31 28 32 37 40 37 40 27 12 9 5 4 4 9 32 97 98 98 96 100 97 98 98 95 100 97 95 71
3 3 3 3 3 3 2 2 2 2 2 2 2 2 2 15 71 67 48 38 36 34 35 35 36 43 26 12 6 4 4 4 4 14 62 96 96 99 96 96 99 98 98 92 90 98 91
4 4 4 4 4 4 4 4 3 3 2 2 2 2 2 4 25 62 57 47 46 36 39 41 43 46 32 16 7 5 4 4 4 5 19 74 97 99 98 98 97 98 92 92 99 100 96
5 6 5 5 6 5 5 4 4 3 3 3 3 3 4 4 6 24 58 63 52 37 39 48 51 46 31 14 10 6 7 46 11 7 8 23 77 98 98 99 96 96 100 97 96 96 89
8 8 7 8 8 8 6 5 5 4 8 10 8 5 6 6 6 9 18 59 59 42 39 42 47 38 28 9 11 3 12 19 7 7 7 18 30 90 98 85 100 100 98 97 97 97 96
9 9 11 13 11 8 7 6 7 17 16 11 9 9 10 7 10 7 7 20 38 32 42 39 41 26 18 10 8 4 2 8 4 4 4 10 11 27 97 100 98 98 97 100 96 98 95
13 15 17 14 9 7 7 9 19 15 10 9 8 10 13 40 39 9 7 7 17 24 25 22 20 17 9 7 6 4 2 3 3 2 3 5 16 40 85 100 99 94 99 98 100 99 98
21 19 15 10 7 7 11 15 11 9 11 14 13 9 12 18 33 36 14 7 6 8 9 8 8 6 5 4 4 3 3 4 2 2 3 3 5 26 65 99 100 93 97 99 98 98 98
18 12 8 8 14 16 14 12 14 25 42 45 34 27 29 71 15 14 17 37 56 7 7 7 6 5 5 5 5 4 4 3 2 2 2 22 14 24 33 50 99 100 97 96 96 98 97
8 8 15 19 19 32 43 49 53 67 76 78 72 66 51 49 97 87 63 26 25 97 54 8 7 8 7 7 18 34 14 2 2 2 2 27 87 33 24 56 64 90 95 99 92 99 100
13 18 17 26 49 45 40 34 35 59 94 92 75 60 51 61 71 88 88 70 26 26 93 89 56 30 10 70 17 9 5 5 5 7 2 7 100 100 85 42 42 74 96 97 100 100 96
17 22 36 38 24 26 29 39 50 100 100 100 96 96 74 63 100 98 82 100 99 66 18 28 91 65 80 64 50 34 19 8 4 3 5 4 99 100 100 97 76 52 41 61 96 90 97
27 26 22 24 24 23 34 41 41 100 100 99 100 97 84 96 100 100 100 86 100 99 54 20 28 70 80 70 74 58 36 21 5 5 4 14 30 99 100 100 100 96 99 84 72 96 100
11 12 16 19 20 27 38 46 48 60 100 98 100 97 81 100 100 100 100 99 85 93 98 38 27 81 74 74 98 62 26 51 29 14 15 8 29 74 100 100 100 100 100 98 100 100 99
12 16 30 69 78 52 31 20 62 59 100 100 95 94 98 100 100 94 87 79 96 100 100 86 76 81 46 48 69 50 48 71 88 86 88 73 28 42 97 100 100 100 100 97 100 96 74
88 96 99 100 100 100 74 38 65 86 100 100 96 99 100 98 100 71 92 67 77 92 95 89 94 89 70 60 66 68 66 96 100 100 100 98 92 43 70 100 99 98 100 100 76 61 44
100 100 100 100 100 100 97 34 64 97 100 88 86 96 100 91 84 39 45 51 34 49 100 100 83 99 92 94 94 87 80 100 98 97 100 100 91 80 40 30 43 44 55 49 36 29 42

GFSGBSN_500_rhum_063.txt.gz
RH
74 81 91 80 73 76 85 81 84 96 91 86 70 65 68 59 59 62 53 40 32 26 18 13 10 9 8 7 6 6 5 5 5 5 7 26 29 38 33 81 75 28 14 16 21 42 54
68 73 85 86 83 89 88 96 96 95 100 95 76 67 61 53 54 61 55 46 28 22 16 13 11 10 9 8 8 7 6 7 7 6 20 44 40 43 37 86 88 32 15 15 20 25 44
79 83 80 86 90 91 90 95 100 100 100 100 78 73 66 60 58 60 53 38 26 22 17 15 13 10 10 9 8 7 7 8 6 11 17 52 52 67 54 71 77 50 18 14 18 24 34
78 86 98 100 96 96 98 99 95 97 97 96 97 96 86 69 66 67 48 31 23 21 20 17 16 13 12 11 9 8 7 9 6 7 22 62 52 61 50 78 96 40 26 17 19 25 36
87 95 97 98 96 96 96 99 96 96 97 96 83 81 76 70 73 62 42 29 25 23 22 20 19 16 14 12 10 12 10 10 6 6 20 71 79 67 74 89 91 77 24 20 22 38 46
90 90 97 98 99 99 95 98 98 88 82 88 88 82 83 82 76 55 38 29 27 24 22 21 20 18 18 13 12 15 14 13 7 5 12 59 80 70 73 91 86 59 32 23 38 48 67
92 94 96 96 98 97 98 97 99 87 84 84 88 84 77 76 71 55 40 31 32 29 23 21 21 21 19 15 16 15 11 14 8 6 12 49 67 46 63 100 100 89 29 31 77 80 96
98 97 97 98 96 97 97 97 98 96 84 82 82 74 68 66 63 66 70 66 42 38 33 28 28 24 21 18 19 14 13 15 10 6 12 32 68 70 80 96 98 94 42 85 71 81 98
99 98 98 94 96 96 96 95 96 92 80 58 56 55 57 59 59 58 56 58 61 55 48 36 33 30 26 23 25 19 16 17 11 6 13 29 83 95 81 99 92 91 82 63 88 97 97
100 100 99 93 87 63 38 24 12 10 11 16 18 20 30 38 43 52 50 55 50 47 40 36 34 31 28 27 25 21 17 14 9 8 11 33 88 87 96 100 88 90 90 86 98 98 76
84 71 40 22 15 10 7 5 4 2 2 2 2 2 2 4 8 30 43 54 56 54 42 36 33 33 30 32 27 21 16 13 9 6 15 48 81 93 100 100 97 92 99 98 89 94 92
64 52 26 16 10 4 2 2 2 1 2 2 2 2 2 2 2 2 11 36 53 53 44 40 37 35 35 36 36 30 22 14 8 5 16 44 94 89 94 98 95 93 93 82 94 92 87
24 12 6 3 2 2 2 2 2 2 2 2 2 2 2 2 2 2 2 7 44 43 47 49 38 35 35 35 35 34 17 10 8 5 6 32 76 95 98 94 99 100 99 98 97 81 67
4 3 4 4 4 4 4 3 3 3 3 3 2 2 2 2 2 2 2 2 5 29 51 61 45 42 33 35 37 39 23 11 4 4 5 27 80 96 98 98 95 100 99 94 99 88 83
5 5 5 5 5 5 5 4 4 4 4 4 4 4 3 3 3 3 2 2 2 29 47 42 46 46 36 38 42 40 27 11 5 5 6 18 40 91 100 100 98 98 94 100 98 84 80
7 6 6 6 6 5 5 5 6 6 6 6 6 5 5 4 4 4 3 2 2 18 52 48 42 43 42 45 46 45 30 19 13 9 19 15 28 56 97 99 98 98 100 98 94 98 82
7 6 6 6 7 7 8 9 9 10 10 9 8 6 7 6 6 6 4 3 4 26 48 44 46 39 39 36 50 43 27 23 54 69 16 12 14 31 84 99 100 100 97 95 98 96 94
8 8 8 9 9 11 13 15 15 14 13 10 8 6 8 11 10 11 9 7 6 16 34 47 53 39 31 34 41 47 12 11 33 42 15 12 9 13 43 85 99 99 97 99 97 100 99
9 10 11 13 16 17 19 17 14 11 9 7 6 8 15 12 14 15 27 10 8 12 24 28 41 40 25 22 29 30 14 9 7 9 5 10 9 9 15 58 100 100 100 98 100 100 98
13 14 16 20 21 18 12 7 7 10 13 14 14 16 12 10 12 99 44 48 11 9 15 20 23 29 23 22 13 14 11 8 6 7 3 3 6 8 15 41 93 99 100 98 99 97 99
15 19 23 22 14 7 9 17 23 26 26 19 14 15 34 29 28 17 36 58 78 57 12 14 14 15 14 10 9 9 8 7 8 4 3 3 3 3 5 35 65 100 100 99 97 97 95
23 26 20 9 8 14 16 26 40 51 59 29 23 49 66 59 61 100 89 50 30 100 100 77 11 11 10 9 9 8 5 4 4 3 5 2 3 4 18 34 51 93 100 100 100 99 96
27 16 8 10 15 16 20 37 54 47 47 46 61 91 84 79 62 70 99 100 74 56 99 100 99 26 10 29 7 5 6 5 6 5 4 3 2 3 16 20 35 46 71 100 98 97 98
13 8 13 19 25 29 34 33 30 28 33 37 50 99 86 90 81 55 61 94 97 96 42 84 100 100 68 27 34 12 7 6 6 4 5 6 5 3 26 67 66 28 58 76 99 100 100
9 17 20 23 24 20 23 24 22 25 46 35 84 100 100 88 84 61 39 89 89 100 82 72 85 83 100 99 69 79 59 11 7 6 5 4 4 4 19 100 91 83 73 43 56 100 100
16 41 13 9 11 16 19 21 28 45 53 40 80 100 100 88 69 54 100 100 95 84 100 85 61 60 37 99 96 81 68 61 32 16 18 14 6 6 16 99 94 100 74 88 77 61 47
71 76 23 13 22 38 62 78 71 30 25 57 68 100 100 86 84 96 100 100 98 100 100 100 91 83 51 72 92 56 46 53 21 61 95 57 61 15 6 81 90 100 100 100 100 79 63
78 85 80 82 98 79 95 100 100 97 41 67 89 100 100 71 100 97 100 100 100 95 88 100 100 96 76 74 61 50 31 60 62 99 100 100 92 75 35 10 73 100 98 100 95 95 100
72 77 86 96 100 100 100 100 100 100 100 71 100 100 100 63 100 73 82 80 96 100 88 99 100 100 94 78 36 46 61 90 99 100 100 100 98 84 76 67 27 65 93 98 100 95 98

GFSGBSN_500_rhum_066.txt.gz
RH
77 69 62 71 71 71 74 70 73 85 82 77 78 77 91 99 100 92 77 69 63 52 48 47 42 36 30 18 14 10 8 8 7 6 6 6 3 3 3 13 24 20 28 37 58 22 21
83 75 70 62 65 78 74 68 63 73 76 75 80 78 80 93 94 96 87 71 68 59 53 53 46 34 24 18 14 12 11 9 8 7 7 5 4 4 4 10 29 33 35 44 69 25 20
85 86 87 79 78 69 68 69 70 70 82 87 93 99 100 100 94 95 93 73 64 63 53 46 40 27 20 18 15 13 12 10 8 7 7 5 5 5 8 32 41 45 42 42 66 33 16
82 89 84 81 69 63 60 77 86 92 100 100 98 98 98 96 94 95 96 97 91 86 69 46 33 24 21 19 17 16 13 11 9 9 8 7 6 6 13 44 55 44 50 70 69 51 16
61 80 73 71 72 76 87 91 95 98 99 97 98 96 100 96 93 95 96 97 92 79 54 36 32 24 22 20 19 18 16 13 11 10 9 9 7 7 15 56 60 50 44 63 90 47 18
60 64 78 86 90 87 90 96 96 97 97 97 97 97 98 97 94 96 95 96 86 68 46 34 30 28 24 22 21 19 18 16 13 11 10 11 8 7 19 59 52 43 62 94 57 28 24
85 79 76 91 92 92 95 97 98 98 97 97 96 97 97 95 95 92 87 77 75 63 49 39 33 28 24 24 22 22 21 18 14 12 11 11 8 7 14 65 82 48 60 96 65 31 31
90 93 93 89 92 98 98 96 97 97 98 98 98 98 98 95 92 81 71 66 64 61 62 62 48 37 26 29 30 29 24 20 17 14 13 11 10 8 10 52 55 45 67 92 50 98 83
92 96 96 100 100 99 99 99 93 88 83 80 64 53 66 80 91 75 50 48 50 50 46 59 58 58 53 44 35 30 25 21 19 16 16 14 10 9 8 46 50 45 78 100 73 78 96
96 100 100 100 99 93 77 58 38 22 5 3 3 3 7 4 13 16 10 17 31 38 39 44 43 40 38 35 33 31 26 24 22 17 14 11 10 8 11 50 84 69 87 98 81 92 64
100 100 96 84 67 59 49 34 21 14 10 6 2 2 2 2 2 2 2 2 3 7 28 33 39 40 39 37 34 31 28 27 24 18 13 11 9 10 13 82 95 83 92 94 69 63 72
90 70 48 35 24 20 14 11 11 7 4 3 2 2 2 2 2 2 2 2 2 2 6 24 32 38 39 39 37 35 32 32 28 20 16 8 9 16 26 73 85 91 91 94 84 81 62
90 86 56 28 16 7 4 4 3 3 3 3 2 3 2 2 3 2 2 2 2 2 6 19 25 29 39 41 37 34 35 36 33 21 15 9 7 37 29 58 93 100 100 99 94 76 60
26 7 4 3 4 4 4 3 3 3 3 3 3 3 3 4 3 2 3 2 2 2 4 20 10 17 33 48 39 34 34 36 35 26 12 8 15 36 69 66 96 98 95 100 99 97 82
5 5 5 4 4 4 4 4 4 4 4 4 4 3 4 5 5 4 4 3 2 2 2 14 21 25 36 58 44 41 37 36 39 25 8 5 8 40 50 48 97 96 78 100 98 100 87
6 5 5 5 5 4 5 5 5 5 4 4 4 4 9 9 9 8 6 4 3 3 3 24 78 38 48 56 47 41 40 41 39 31 10 11 12 29 48 72 89 100 99 95 97 100 96
6 5 6 5 5 5 6 6 6 6 6 6 8 8 11 10 10 9 6 5 4 5 7 13 58 95 73 87 56 43 52 64 55 34 19 15 14 23 37 85 86 100 98 96 100 100 99
5 6 6 6 6 8 7 6 9 12 12 10 8 7 8 8 8 8 7 7 7 6 10 17 42 48 92 100 74 56 48 47 54 52 44 42 17 15 34 80 91 99 100 95 99 99 98
7 6 7 9 9 8 8 12 16 15 10 7 7 7 11 11 10 9 10 12 11 9 12 19 75 100 66 92 89 82 46 47 46 26 43 48 26 17 17 44 72 83 98 100 100 99 97
7 9 10 11 9 10 16 18 12 7 8 11 12 14 28 24 31 28 75 66 32 33 13 16 30 81 93 100 84 48 44 33 25 19 13 9 13 16 20 37 63 85 95 98 99 99 99
10 11 13 11 14 20 17 10 7 10 14 15 16 30 33 44 42 34 91 100 99 93 81 25 20 37 57 44 67 44 28 27 24 20 16 11 9 5 8 32 46 72 100 94 94 100 98
11 14 14 16 22 16 8 9 13 15 15 14 26 41 33 70 98 50 66 100 98 93 100 75 25 32 47 34 33 33 29 20 22 19 21 14 7 3 3 6 16 54 93 96 95 96 97
12 17 19 24 16 8 13 18 23 26 27 33 42 51 56 72 91 100 65 58 48 55 100 100 99 56 25 31 51 39 52 31 22 12 10 7 5 4 4 8 9 12 97 100 100 100 100
20 21 26 17 9 14 18 25 28 28 30 28 30 32 41 79 79 74 100 100 100 50 57 100 100 100 88 19 62 92 83 34 12 9 7 5 4 4 4 6 21 26 51 74 99 100 96
23 28 20 9 28 56 17 15 16 22 24 24 24 33 33 61 90 94 92 100 100 80 34 60 99 93 100 50 48 48 58 23 7 7 6 6 7 4 6 5 12 40 94 62 98 92 94
29 25 9 35 63 44 10 11 16 19 22 26 45 42 37 78 97 100 95 76 74 100 88 43 96 100 100 100 95 47 39 38 28 14 14 7 4 4 4 4 3 92 100 98 45 60 86
31 12 20 64 64 22 16 30 50 58 58 36 32 46 36 59 100 96 91 71 44 71 100 88 54 77 91 100 100 98 75 74 56 42 28 9 5 4 4 3 3 71 100 100 100 78 78
20 10 54 65 71 77 90 94 77 83 87 86 41 46 55 54 92 98 68 43 58 69 100 100 100 99 90 82 73 100 78 65 46 34 39 53 38 27 25 4 3 39 100 100 100 100 100
10 37 66 64 74 85 90 98 100 93 100 94 95 74 91 74 79 88 71 86 100 100 100 95 100 96 100 73 59 66 62 58 46 55 99 100 99 78 74 68 23 16 97 98 99 100 100

GFSGBSN_500_rhum_069.txt.gz
RH
72 75 73 71 72 74 72 65 70 64 63 65 66 62 59 62 67 70 76 74 79 86 89 89 72 66 57 48 42 35 25 20 15 11 8 8 7 6 6 7 7 6 3 3 8 19 22
88 91 88 84 83 81 74 73 72 73 69 71 70 62 63 63 62 70 77 84 93 93 93 97 92 76 64 50 43 36 24 18 15 11 10 9 8 7 7 8 7 4 3 4 13 23 28
96 99 92 85 80 74 71 70 74 73 74 75 70 63 67 74 78 91 94 97 95 88 96 96 96 92 61 45 41 33 30 21 16 13 12 10 8 8 10 9 5 4 3 12 33 31 25
88 85 77 68 70 66 62 74 73 70 77 69 62 76 85 86 85 92 96 96 93 90 94 97 96 95 55 44 35 40 21 18 16 15 13 11 10 10 9 7 5 5 5 21 40 45 50
82 69 63 71 71 59 58 59 71 79 78 84 89 96 95 91 96 97 98 98 91 96 98 97 96 97 97 81 35 24 22 20 18 17 15 13 12 11 10 6 6 5 13 43 48 61 82
73 65 62 68 74 72 73 65 82 84 85 86 92 97 97 95 95 92 94 96 94 94 97 96 94 96 85 68 35 32 28 20 20 20 18 16 15 12 9 7 6 7 15 55 38 88 92
70 70 65 71 77 75 77 81 81 77 81 95 98 98 97 94 96 91 97 96 88 85 88 92 96 95 69 45 27 22 23 21 21 22 20 18 17 13 10 8 7 7 14 42 33 63 87
84 81 78 71 76 78 83 86 88 91 95 98 99 97 98 96 97 93 93 100 91 75 77 77 88 81 92 81 44 25 40 24 27 28 24 20 16 13 11 10 8 8 9 42 31 92 74
96 95 92 92 92 85 89 96 97 95 94 88 82 71 48 38 32 43 37 48 72 76 66 64 73 56 65 79 54 45 45 41 34 30 25 20 16 14 12 11 10 8 13 45 41 95 68
96 95 93 88 92 100 99 98 91 85 66 42 36 19 10 11 18 10 9 10 12 20 43 33 47 50 50 50 50 46 43 38 33 29 26 22 18 16 13 11 10 8 51 59 59 73 55
98 97 91 97 99 97 88 68 54 38 15 7 4 4 3 3 3 4 3 2 2 2 21 19 26 29 40 45 42 37 35 35 33 30 28 23 19 15 12 10 10 9 52 69 62 75 58
98 95 97 94 77 44 30 22 21 17 19 17 10 6 4 4 3 4 3 2 2 3 6 7 10 20 25 34 39 40 39 36 34 32 30 26 21 16 11 11 11 13 74 90 84 72 64
100 98 81 81 87 70 27 10 5 4 3 2 2 3 3 4 3 3 3 2 3 5 4 4 5 6 10 19 36 40 40 39 37 34 33 29 23 18 13 10 10 22 92 100 98 76 52
88 87 93 65 27 8 5 4 4 3 3 3 3 4 5 4 4 4 3 3 3 4 4 3 3 3 3 27 30 38 39 38 36 34 34 32 18 14 10 12 20 46 100 99 86 78 77
98 80 32 9 6 6 5 4 4 3 4 4 4 4 5 4 4 4 4 3 3 3 5 5 4 3 3 12 8 30 40 39 35 34 35 33 22 8 8 15 24 68 97 99 100 100 95
25 8 7 6 5 5 5 4 4 4 4 4 4 5 4 5 5 5 5 4 6 7 7 6 4 19 8 12 23 44 61 41 40 37 37 35 21 10 9 26 53 78 100 98 100 100 90
8 7 6 6 5 5 5 5 5 6 6 5 5 5 6 7 7 7 7 7 8 9 9 7 6 7 13 35 86 77 63 52 67 51 50 38 25 20 13 35 51 93 100 98 100 99 79
7 6 6 5 5 5 6 7 8 8 6 6 6 10 9 7 7 6 6 6 7 7 10 8 6 6 20 100 100 100 78 69 100 99 79 50 30 32 19 34 72 99 100 100 100 100 98
6 6 6 6 6 8 9 10 9 8 7 9 10 9 8 8 8 8 9 12 11 10 11 9 7 6 13 94 100 100 100 69 56 74 86 77 62 75 63 21 54 92 100 100 100 99 98
6 6 7 7 8 10 11 11 9 11 13 11 8 8 12 15 16 18 70 89 84 38 18 24 10 9 12 51 100 100 100 87 72 59 60 58 50 82 67 37 35 61 97 100 100 99 97
8 7 8 7 9 10 13 11 15 16 10 8 10 13 18 20 18 22 88 99 100 100 86 92 45 18 21 93 100 96 100 100 95 91 52 54 29 42 36 42 40 33 93 100 100 100 97
8 7 7 8 10 13 14 20 19 9 12 13 20 18 26 28 18 25 34 71 100 100 99 100 95 45 56 77 100 100 100 100 100 100 58 33 25 16 14 20 25 31 92 100 100 100 100
9 8 8 10 11 15 18 21 10 37 21 22 30 37 41 45 26 33 58 51 92 94 100 87 90 64 27 60 77 100 100 100 98 68 67 73 31 15 13 11 6 8 42 96 96 100 100
10 8 8 10 15 18 23 12 44 52 17 23 25 25 30 36 46 43 76 84 64 90 100 64 99 54 34 27 41 69 57 46 65 73 55 21 17 14 11 11 7 7 7 39 91 92 100
9 8 10 11 18 26 13 44 40 13 12 16 20 24 25 26 36 61 72 100 80 59 63 54 97 100 100 80 26 78 76 47 77 77 77 42 28 11 8 5 8 15 8 24 38 87 92
9 9 11 17 24 24 26 51 15 15 20 18 19 22 23 28 37 62 77 77 100 100 93 77 82 100 100 100 73 57 90 90 68 78 52 21 22 11 9 7 5 16 8 27 13 23 80
10 11 14 23 31 13 52 52 22 18 34 29 23 23 28 34 46 59 90 86 98 100 93 100 54 90 100 100 100 76 58 53 44 40 22 19 10 11 5 5 5 10 9 33 41 33 40
10 12 22 31 24 30 59 61 66 77 86 78 67 59 27 28 51 82 95 88 92 71 77 100 91 43 100 98 100 100 81 56 49 71 33 18 12 10 6 4 4 7 6 21 89 77 99
12 19 31 37 14 59 64 74 81 87 84 77 70 75 68 52 68 73 93 98 97 77 56 100 100 99 100 90 97 100 100 100 94 66 36 34 75 55 55 12 8 9 6 8 78 100 92

GFSGBSN_500_rhum_072.txt.gz
RH
70 66 66 68 68 65 65 65 64 68 65 64 60 57 54 50 52 49 56 56 54 54 57 62 77 75 79 95 96 83 68 54 42 35 29 22 14 13 10 8 7 7 6 6 6 6 5
71 70 75 85 84 84 80 70 68 67 58 55 59 59 50 47 43 54 62 64 61 56 64 69 70 68 78 98 93 96 80 53 40 28 26 22 15 13 10 8 8 8 8 7 8 7 4
69 70 77 80 84 84 81 81 73 64 54 53 55 55 50 46 42 54 67 63 59 64 72 76 80 86 94 100 98 98 97 49 28 24 22 18 14 12 12 11 10 8 9 9 8 5 5
78 74 72 78 80 84 80 73 68 56 52 54 53 51 47 46 51 62 74 72 64 74 80 88 89 85 90 96 97 96 97 60 32 18 18 18 16 14 13 11 10 10 11 10 7 6 10
97 100 96 91 84 85 83 73 58 58 65 64 62 56 55 53 68 73 79 78 72 77 87 93 88 88 100 99 98 98 99 93 55 26 24 31 21 16 15 13 12 12 14 11 6 6 10
98 97 99 96 94 83 70 63 60 66 70 71 64 65 66 64 69 72 85 89 84 81 89 84 84 88 99 100 96 99 92 93 81 70 52 43 28 18 17 17 20 15 15 9 6 6 20
97 100 100 100 92 82 68 64 62 64 68 69 69 72 72 72 71 74 95 97 86 78 82 78 88 93 100 96 95 98 97 93 86 58 38 56 35 23 21 19 17 14 10 9 6 6 33
93 94 97 97 96 95 88 80 76 68 69 74 80 87 89 86 89 93 99 98 92 78 74 82 78 81 88 90 99 81 86 63 43 25 30 38 55 31 26 21 17 14 11 9 6 9 31
96 95 96 96 97 97 92 94 91 89 82 83 86 94 85 78 71 70 64 52 44 51 36 52 80 77 79 84 87 100 72 82 79 44 55 45 32 28 24 20 16 14 11 10 6 14 38
98 93 95 96 99 98 95 98 92 88 88 91 88 77 59 60 49 34 29 33 25 20 30 19 21 36 43 56 89 82 95 95 80 71 58 41 32 28 24 20 18 15 13 11 8 7 32
97 96 97 98 99 99 100 100 97 92 87 71 52 24 13 16 21 16 15 11 8 7 16 13 12 17 23 33 46 57 78 91 78 46 39 33 30 27 24 20 19 15 13 11 9 8 34
98 98 98 100 99 99 98 91 78 66 47 43 21 16 15 21 12 5 3 3 3 4 5 7 8 7 11 23 31 41 48 47 54 60 37 35 32 30 27 22 19 16 12 11 8 13 23
100 100 100 98 99 95 79 60 58 63 65 37 15 4 5 6 4 4 4 4 4 5 5 4 4 4 5 6 13 28 36 40 42 40 38 37 35 33 30 25 20 15 12 11 13 15 36
100 100 100 100 94 92 97 74 40 34 13 6 5 3 3 3 4 4 4 4 4 4 4 4 3 4 4 3 4 7 16 31 40 40 38 38 36 35 30 20 17 11 11 19 20 30 73
99 100 99 90 98 92 73 26 11 5 3 3 3 3 4 4 4 4 4 5 4 4 4 4 4 4 4 3 3 4 6 22 39 40 38 37 37 35 31 20 14 13 17 28 33 81 86
100 97 99 100 96 58 22 6 4 4 3 4 4 4 4 5 5 5 5 5 6 5 6 7 8 6 5 4 4 5 9 15 33 43 41 39 37 34 28 19 9 9 19 44 82 96 94
100 100 88 54 20 8 6 5 4 4 4 5 5 6 6 6 6 6 6 7 7 7 7 8 9 9 8 6 6 27 10 20 50 50 49 42 37 42 37 26 14 13 41 76 94 99 98
100 76 37 11 9 7 6 5 5 5 6 7 7 7 7 6 6 6 7 6 6 6 7 7 6 8 9 8 6 9 25 18 22 79 83 80 48 44 47 49 27 24 37 75 96 99 99
89 21 11 9 8 7 6 5 5 6 8 9 9 8 9 8 8 7 7 7 8 10 9 10 10 8 10 8 7 9 88 38 35 68 100 95 100 86 72 52 42 29 52 97 100 99 100
13 11 10 9 9 7 6 6 6 8 10 10 9 11 10 10 9 9 11 14 15 33 70 35 24 16 12 9 7 8 60 100 90 60 100 100 99 100 100 100 80 30 91 100 100 100 100
13 11 10 10 8 7 6 7 8 9 11 10 12 16 21 15 15 14 15 15 21 83 100 98 90 61 28 11 8 6 73 100 88 100 74 77 67 96 100 100 97 47 59 98 98 100 99
12 12 11 10 9 8 7 8 8 11 12 14 17 33 22 23 23 23 23 19 23 81 86 100 100 90 47 20 15 50 34 100 100 100 74 62 88 92 74 69 89 50 30 52 96 83 90
12 12 12 12 10 9 8 8 9 13 15 18 28 20 21 30 35 36 28 29 30 44 77 100 100 100 84 67 20 29 95 100 100 100 100 100 96 97 76 51 26 19 25 26 63 85 98
11 13 13 14 12 9 8 8 12 16 14 33 13 13 24 24 26 31 40 28 38 32 74 98 93 94 100 97 52 42 85 100 99 100 100 100 100 99 70 57 28 20 14 13 19 74 99
12 14 15 14 11 9 8 10 16 19 21 20 17 26 21 22 26 28 35 39 38 51 56 92 75 72 88 79 35 49 60 100 100 99 100 98 68 72 66 48 34 17 13 8 6 21 87
12 14 15 14 11 9 9 14 22 19 34 18 18 22 18 18 21 23 26 50 52 58 65 72 75 85 91 100 100 51 33 57 95 81 70 65 65 64 71 59 45 13 8 8 5 10 23
12 14 15 14 11 9 11 23 28 24 50 46 39 44 47 21 27 30 35 38 67 67 75 57 96 94 100 100 100 87 54 50 72 61 69 78 64 65 73 65 52 10 9 6 8 30 25
14 16 17 14 11 10 18 33 22 48 64 63 60 64 61 42 25 30 35 49 73 81 77 65 97 100 100 100 100 100 79 84 91 90 82 63 63 64 50 42 28 12 8 7 9 21 53
16 17 16 14 11 13 32 32 32 65 75 76 72 60 59 57 69 60 61 65 91 83 88 75 94 100 100 81 100 100 93 97 89 68 74 79 50 38 31 25 27 12 7 6 6 13 84

GFSGBSN_500_rhum_075.txt.gz
RH
69 66 65 64 64 65 65 66 66 62 65 67 65 61 53 52 48 41 37 34 38 36 32 30 31 40 59 63 64 59 59 60 73 93 95 71 40 34 30 25 16 15 9 8 7 6 6
66 64 70 60 61 66 68 70 64 59 56 61 59 62 58 57 48 42 39 39 39 34 28 31 37 48 58 72 70 68 61 79 100 98 100 85 29 30 30 24 17 14 13 9 8 7 7
75 73 72 79 65 65 70 65 71 67 68 67 60 58 53 52 43 42 42 42 34 34 35 43 47 53 68 80 80 84 80 88 100 96 97 92 24 20 25 20 19 13 11 9 9 8 8
92 94 73 71 76 83 81 77 80 82 76 71 64 62 53 48 46 44 50 45 39 39 53 58 60 60 64 76 79 80 89 95 99 97 93 76 89 29 17 16 16 14 12 11 9 9 9
97 100 98 88 83 80 77 74 78 82 79 73 70 61 53 51 53 60 58 46 43 50 58 61 65 67 78 92 89 91 98 99 99 88 88 88 63 66 18 18 19 15 14 12 11 11 12
98 97 97 99 100 97 88 86 89 90 88 80 71 65 57 51 51 55 51 50 50 56 62 72 83 89 84 87 90 88 100 98 96 96 88 83 80 50 33 54 41 20 15 13 13 12 11
97 96 95 94 98 95 92 92 92 95 92 91 80 64 55 55 57 60 62 58 56 64 80 91 88 90 82 76 84 98 95 96 100 78 34 65 72 80 98 89 67 41 27 22 17 13 11
95 96 96 95 95 95 91 93 94 95 88 88 80 71 65 74 71 66 71 76 73 60 78 79 82 78 78 78 82 90 93 92 98 99 97 69 32 35 60 60 35 31 52 29 17 13 13
97 94 92 90 95 97 98 95 96 89 89 91 94 87 77 73 70 66 68 64 57 48 44 38 30 58 46 49 78 91 84 96 94 72 74 80 58 53 55 54 76 78 42 20 16 14 12
97 98 93 93 100 98 97 96 95 85 90 95 92 85 78 71 73 66 55 46 44 46 34 31 25 17 22 21 26 44 84 87 92 100 94 80 58 60 84 50 36 28 22 18 16 16 13
97 98 99 98 98 98 98 97 93 99 99 97 90 88 79 72 64 55 52 49 42 38 26 21 18 13 13 14 18 24 38 63 82 94 100 86 88 98 78 40 36 25 20 18 17 16 16
98 98 98 98 97 98 99 98 100 100 100 94 85 68 57 42 42 45 33 18 17 15 10 12 10 8 6 8 8 15 33 45 53 69 91 100 65 63 50 31 28 25 21 19 18 16 14
100 98 100 99 100 99 100 98 100 100 90 76 60 52 72 44 16 14 9 6 6 5 6 7 6 6 6 5 5 7 8 30 46 48 50 67 95 85 44 35 32 29 25 21 18 16 14
98 100 100 100 97 100 100 100 94 97 85 82 67 38 14 6 4 4 4 4 4 5 5 5 5 5 5 4 4 4 4 8 25 42 46 48 47 43 41 37 35 32 28 20 17 15 15
100 99 100 100 99 100 100 98 100 90 69 40 25 10 3 3 4 5 4 5 5 5 6 5 5 5 4 4 4 4 3 4 6 22 39 43 46 43 40 38 35 28 21 16 16 18 17
100 100 100 100 100 100 100 99 92 83 54 9 4 4 4 4 5 6 6 6 6 6 5 5 5 4 4 4 4 4 4 4 4 7 21 29 37 43 42 39 34 34 24 19 27 30 39
100 100 100 100 100 100 100 96 75 18 5 4 4 4 5 8 10 10 7 6 6 6 6 5 6 6 6 6 7 6 4 5 10 64 22 20 25 39 45 48 37 32 21 18 63 75 92
100 100 100 100 100 98 86 40 9 5 4 4 5 6 9 14 12 8 7 6 6 7 7 6 6 6 6 7 7 8 6 5 5 37 88 96 56 48 56 46 41 42 28 46 97 93 100
100 100 100 99 86 70 24 8 7 5 5 5 6 8 12 10 8 7 6 8 8 8 9 11 12 11 9 8 8 8 9 7 5 6 25 66 86 88 87 71 46 54 59 83 100 100 100
100 100 99 88 59 17 10 8 7 6 6 6 8 10 9 9 8 9 10 9 11 13 16 17 29 44 42 14 12 11 11 9 8 83 38 16 65 100 100 99 80 63 62 96 99 100 100
100 100 97 50 15 11 9 10 7 6 7 8 10 10 10 10 12 11 12 14 16 18 19 34 91 100 89 71 73 17 14 9 18 100 100 53 73 100 100 100 100 99 86 59 100 100 100
100 98 72 17 14 12 12 10 8 8 8 12 8 12 13 17 11 15 20 23 19 18 21 47 51 100 100 100 78 67 15 9 13 99 100 98 57 100 100 84 87 100 100 88 74 100 100
100 54 16 15 14 14 12 10 10 9 8 8 10 13 18 14 15 28 29 32 31 16 25 48 60 74 100 100 100 56 23 21 12 98 100 100 100 100 89 54 67 72 83 83 45 67 99
49 18 15 15 15 13 13 12 11 9 9 8 12 15 24 15 26 28 33 38 39 24 25 44 59 62 86 95 89 92 32 15 21 92 100 100 100 100 93 59 66 74 61 47 40 26 42
40 16 14 15 12 13 14 13 12 10 8 9 16 17 27 18 25 24 21 30 31 39 28 30 60 60 82 91 83 65 47 24 33 100 100 99 97 86 78 89 71 65 64 30 18 15 17
34 11 12 14 12 13 14 14 13 10 9 15 20 32 46 36 30 24 20 18 22 34 42 33 45 48 70 80 99 92 58 34 78 100 100 98 98 80 72 71 57 58 64 35 17 11 8
12 11 11 12 12 13 14 15 13 10 13 24 27 53 54 46 41 42 25 20 23 27 54 53 47 62 78 94 100 100 97 60 57 86 88 99 82 69 57 47 30 44 78 54 21 14 9
14 12 11 12 14 15 17 16 12 11 28 26 52 66 58 49 48 41 33 27 27 28 63 64 77 88 95 100 100 100 99 65 75 62 88 85 85 72 50 31 37 52 72 53 19 12 10
20 14 13 14 15 17 18 15 12 16 34 45 68 76 67 57 49 49 44 44 50 39 72 76 81 100 87 86 99 100 100 100 98 96 55 43 57 48 34 51 51 43 53 34 10 7 8